Climatologie pour Saint-Brevin les Pins
Jour • Résumé pour juillet 1, 2017 Système :  Métrique    Anglais   Mixte
« - 1 jour
+ 1 jour »
Jour Semaine Mois Année Personnalisé
  Maximum : Minimum : Moyenne :
Température sous abri : -17.8 °C -9.8 °C -8.6 °C
Point de rosée : -17.8 °C -10.8 °C -10.4 °C
Humidité : Humidity % 62 % 81 %
Vitesse du vent : 0 km/h 0 km/h 13.2 km/h
Rafale : 0 km/h - -
Direction :- - WNW
Pression : 0 hPa 34347.6 hPa -
Précipitations : 0 mm    
Historical Graphs
 
 
Tableau de données pour juillet 1, 2017
Heure Tempé Pt rosée Pression Vent Vitesse Rafale Humidité Taux pluie (/hr) Soleil
-17.8 °C -17.8 °C 0 hPa Calm     Humidity % 0 mm SolarRadiationWatts/m^2 W/m2 Conditions
00:00 -9.7 °C -10.8 °C 34347.6 hPa West 5.1 km/h 31.1 km/h 88 % 0 mm 0 W/m2
00:10 -9.7 °C -10.8 °C 34347.6 hPa WNW 12.9 km/h 31.1 km/h 88 % 0 mm 0 W/m2
00:15 -9.7 °C -10.8 °C 34347.6 hPa WNW 10.3 km/h 31.1 km/h 88 % 0 mm 0 W/m2
00:20 -9.7 °C -10.8 °C 34361.1 hPa NNW 5.1 km/h 31.1 km/h 88 % 0 mm 0 W/m2
00:25 -9.7 °C -10.8 °C 34361.1 hPa WNW 15.6 km/h 36.2 km/h 88 % 0 mm 0 W/m2
00:30 -9.7 °C -10.8 °C 34361.1 hPa WNW 10.3 km/h 36.2 km/h 88 % 0 mm 0 W/m2
00:40 -9.7 °C -10.8 °C 34361.1 hPa North 12.9 km/h 25.9 km/h 88 % 0 mm 0 W/m2
00:45 -9.7 °C -10.8 °C 34361.1 hPa WNW 10.3 km/h 25.9 km/h 88 % 0 mm 0 W/m2
00:50 -9.6 °C -10.7 °C 34361.1 hPa WNW 12.9 km/h 23.3 km/h 88 % 0 mm 0 W/m2
00:55 -9.6 °C -10.7 °C 34361.1 hPa WNW 7.7 km/h 28.5 km/h 88 % 0 mm 0 W/m2
01:00 -9.6 °C -10.7 °C 34371.3 hPa WNW 7.7 km/h 28.5 km/h 88 % 0 mm 0 W/m2
01:05 -9.6 °C -10.7 °C 34371.3 hPa North 2.6 km/h 23.3 km/h 88 % 0 mm 0 W/m2
01:10 -9.6 °C -10.7 °C 34361.1 hPa WNW 7.7 km/h 25.9 km/h 88 % 0 mm 0 W/m2
01:15 -9.6 °C -10.7 °C 34361.1 hPa West 12.9 km/h 31.1 km/h 88 % 0 mm 0 W/m2
01:25 -9.6 °C -10.7 °C 34371.3 hPa North 12.9 km/h 33.6 km/h 88 % 0 mm 0 W/m2
01:30 -9.6 °C -10.7 °C 34371.3 hPa WNW 5.1 km/h 23.3 km/h 88 % 0 mm 0 W/m2
01:35 -9.6 °C -10.7 °C 34371.3 hPa WNW 20.8 km/h 23.3 km/h 88 % 0 mm 0 W/m2
01:40 -9.6 °C -10.7 °C 34371.3 hPa Calm   28.5 km/h 88 % 0 mm 0 W/m2
01:45 -9.6 °C -10.7 °C 34384.8 hPa NNW 7.7 km/h 31.1 km/h 88 % 0 mm 0 W/m2
01:50 -9.6 °C -10.7 °C 34384.8 hPa NW 12.9 km/h 31.1 km/h 88 % 0 mm 0 W/m2
01:55 -9.6 °C -10.7 °C 34384.8 hPa WNW 10.3 km/h 36.2 km/h 88 % 0 mm 0 W/m2
02:00 -9.6 °C -10.7 °C 34384.8 hPa NW 12.9 km/h 44.1 km/h 88 % 0 mm 0 W/m2
02:10 -9.7 °C -10.7 °C 34384.8 hPa North 10.3 km/h 28.5 km/h 89 % 0 mm 0 W/m2
02:15 -9.7 °C -10.7 °C 34384.8 hPa West 5.1 km/h 25.9 km/h 89 % 0 mm 0 W/m2
02:20 -9.7 °C -10.7 °C 34384.8 hPa NW 12.9 km/h 25.9 km/h 89 % 0 mm 0 W/m2
02:25 -9.7 °C -10.7 °C 34384.8 hPa WNW 5.1 km/h 28.5 km/h 89 % 0 mm 0 W/m2
02:30 -9.7 °C -10.7 °C 34384.8 hPa NNW 10.3 km/h 28.5 km/h 89 % 0 mm 0 W/m2
02:35 -9.7 °C -10.7 °C 34395 hPa NW 15.6 km/h 25.9 km/h 89 % 0 mm 0 W/m2
02:40 -9.7 °C -10.7 °C 34395 hPa NW 12.9 km/h 25.9 km/h 89 % 0 mm 0 W/m2
02:45 -9.7 °C -10.7 °C 34395 hPa NW 15.6 km/h 31.1 km/h 89 % 0 mm 0 W/m2
02:55 -9.7 °C -10.7 °C 34395 hPa NW 2.6 km/h 38.8 km/h 89 % 0 mm 0 W/m2
03:00 -9.7 °C -10.7 °C 34395 hPa NW 12.9 km/h 38.8 km/h 89 % 0 mm 0 W/m2
03:05 -9.7 °C -10.7 °C 34395 hPa West 5.1 km/h 36.2 km/h 89 % 0 mm 0 W/m2
03:10 -9.7 °C -10.7 °C 34395 hPa NW 5.1 km/h 28.5 km/h 89 % 0 mm 0 W/m2
03:15 -9.7 °C -10.7 °C 34405.1 hPa WSW 7.7 km/h 28.5 km/h 89 % 0 mm 0 W/m2
03:20 -9.7 °C -10.7 °C 34395 hPa North 18.2 km/h 25.9 km/h 89 % 0 mm 0 W/m2
03:25 -9.7 °C -10.7 °C 34395 hPa WNW 7.7 km/h 25.9 km/h 89 % 0 mm 0 W/m2
03:30 -9.7 °C -10.6 °C 34395 hPa WNW 12.9 km/h 33.6 km/h 90 % 0 mm 0 W/m2
03:40 -9.8 °C -10.7 °C 34405.1 hPa WNW 7.7 km/h 25.9 km/h 90 % 0 mm 0 W/m2
03:45 -9.8 °C -10.7 °C 34405.1 hPa North 20.8 km/h 28.5 km/h 90 % 0 mm 0 W/m2
03:55 -9.8 °C -10.7 °C 34405.1 hPa WNW 10.3 km/h 31.1 km/h 90 % 0 mm 0 W/m2
04:00 -9.8 °C -10.7 °C 34405.1 hPa NW 15.6 km/h 23.3 km/h 90 % 0 mm 0 W/m2
04:05 -9.8 °C -10.7 °C 34405.1 hPa West 7.7 km/h 25.9 km/h 90 % 0 mm 0 W/m2
04:10 -9.8 °C -10.7 °C 34405.1 hPa NNW 2.6 km/h 25.9 km/h 90 % 0 mm 0 W/m2
04:15 -9.8 °C -10.7 °C 34405.1 hPa NNW 5.1 km/h 28.5 km/h 90 % 0 mm 0 W/m2
04:25 -9.8 °C -10.6 °C 34405.1 hPa WNW 10.3 km/h 23.3 km/h 91 % 0 mm 0 W/m2
04:30 -9.8 °C -10.7 °C 34405.1 hPa NNW 7.7 km/h 25.9 km/h 90 % 0 mm 0 W/m2
04:35 -9.8 °C -10.7 °C 34418.7 hPa WNW 7.7 km/h 31.1 km/h 90 % 0 mm 0 W/m2
04:40 -9.8 °C -10.7 °C 34418.7 hPa NW 12.9 km/h 31.1 km/h 90 % 0 mm 0 W/m2
04:45 -9.8 °C -10.7 °C 34418.7 hPa NNW 10.3 km/h 31.1 km/h 90 % 0 mm 0 W/m2
04:50 -9.8 °C -10.7 °C 34418.7 hPa NNW 18.2 km/h 23.3 km/h 90 % 0 mm 0 W/m2
04:55 -9.8 °C -10.7 °C 34418.7 hPa NNW 15.6 km/h 28.5 km/h 90 % 0 mm 0 W/m2
05:00 -9.8 °C -10.7 °C 34418.7 hPa NNW 7.7 km/h 28.5 km/h 90 % 0 mm 0 W/m2
05:05 -9.8 °C -10.7 °C 34418.7 hPa WNW 5.1 km/h 25.9 km/h 90 % 0 mm 0 W/m2
05:10 -9.8 °C -10.6 °C 34418.7 hPa NW 5.1 km/h 25.9 km/h 91 % 0 mm 0 W/m2
05:20 -9.8 °C -10.6 °C 34418.7 hPa West 2.6 km/h 18.2 km/h 91 % 0 mm 0 W/m2
05:25 -9.7 °C -10.6 °C 34418.7 hPa WNW 5.1 km/h 25.9 km/h 91 % 0 mm 0 W/m2
05:30 -9.7 °C -10.6 °C 34428.8 hPa WNW 7.7 km/h 25.9 km/h 91 % 0 mm 0 W/m2
05:35 -9.7 °C -10.6 °C 34428.8 hPa NNW 10.3 km/h 23.3 km/h 91 % 0 mm 0 W/m2
05:40 -9.8 °C -10.6 °C 34428.8 hPa North 18.2 km/h 25.9 km/h 91 % 0 mm 0 W/m2
05:45 -9.8 °C -10.6 °C 34428.8 hPa NW 10.3 km/h 25.9 km/h 91 % 0 mm 0 W/m2
05:55 -9.8 °C -10.6 °C 34428.8 hPa NW 5.1 km/h 31.1 km/h 91 % 0 mm 0 W/m2
06:00 -9.8 °C -10.6 °C 34428.8 hPa NNE 2.6 km/h 31.1 km/h 91 % 0 mm 0 W/m2
06:05 -9.8 °C -10.6 °C 34428.8 hPa NW 18.2 km/h 25.9 km/h 91 % 0 mm 0 W/m2
06:10 -9.8 °C -10.6 °C 34428.8 hPa WNW 10.3 km/h 31.1 km/h 91 % 0 mm 0 W/m2
06:15 -9.8 °C -10.6 °C 34428.8 hPa North 5.1 km/h 31.1 km/h 91 % 0 mm 0 W/m2
06:20 -9.8 °C -10.6 °C 34428.8 hPa WNW 7.7 km/h 31.1 km/h 91 % 0 mm 0 W/m2
06:25 -9.8 °C -10.6 °C 34428.8 hPa North 7.7 km/h 20.8 km/h 91 % 0 mm 0 W/m2
06:30 -9.8 °C -10.6 °C 34428.8 hPa WNW 12.9 km/h 25.9 km/h 91 % 0 mm 0 W/m2
06:40 -9.8 °C -10.7 °C 34442.4 hPa NW 2.6 km/h 25.9 km/h 91 % 0 mm 7 W/m2
06:45 -9.8 °C -10.7 °C 34442.4 hPa NW 5.1 km/h 25.9 km/h 91 % 0 mm 14 W/m2
06:50 -9.8 °C -10.7 °C 34442.4 hPa NW 7.7 km/h 25.9 km/h 91 % 0 mm 18 W/m2
06:55 -9.8 °C -10.6 °C 34442.4 hPa NW 15.6 km/h 25.9 km/h 91 % 0 mm 25 W/m2
07:00 -9.8 °C -10.6 °C 34442.4 hPa NW 2.6 km/h 28.5 km/h 91 % 0 mm 28 W/m2
07:05 -9.7 °C -10.6 °C 34452.6 hPa North 7.7 km/h 28.5 km/h 91 % 0 mm 26 W/m2
07:10 -9.7 °C -10.6 °C 34452.6 hPa North 10.3 km/h 36.2 km/h 90 % 0 mm 26 W/m2
07:15 -9.7 °C -10.6 °C 34452.6 hPa NW 10.3 km/h 36.2 km/h 90 % 0 mm 26 W/m2
07:25 -9.6 °C -10.6 °C 34462.7 hPa NW 10.3 km/h 28.5 km/h 90 % 0 mm 33 W/m2
07:30 -9.6 °C -10.6 °C 34462.7 hPa WNW 7.7 km/h 31.1 km/h 89 % 0 mm 37 W/m2
07:35 -9.6 °C -10.6 °C 34462.7 hPa WNW 7.7 km/h 31.1 km/h 89 % 0 mm 40 W/m2
07:40 -9.6 °C -10.6 °C 34462.7 hPa WNW 7.7 km/h 31.1 km/h 89 % 0 mm 39 W/m2
07:45 -9.6 °C -10.6 °C 34462.7 hPa WNW 25.9 km/h 31.1 km/h 89 % 0 mm 44 W/m2
07:50 -9.5 °C -10.5 °C 34462.7 hPa North 12.9 km/h 28.5 km/h 89 % 0 mm 53 W/m2
07:55 -9.5 °C -10.6 °C 34476.3 hPa NW 7.7 km/h 33.6 km/h 88 % 0 mm 46 W/m2
08:00 -9.4 °C -10.6 °C 34476.3 hPa WNW 12.9 km/h 38.8 km/h 88 % 0 mm 53 W/m2
08:10 -9.4 °C -10.5 °C 34476.3 hPa NW 15.6 km/h 28.5 km/h 88 % 0 mm 53 W/m2
08:15 -9.4 °C -10.5 °C 34476.3 hPa NW 10.3 km/h 36.2 km/h 88 % 0 mm 42 W/m2
08:20 -9.4 °C -10.6 °C 34476.3 hPa WNW 23.3 km/h 36.2 km/h 87 % 0 mm 35 W/m2
08:25 -9.4 °C -10.6 °C 34476.3 hPa West 12.9 km/h 28.5 km/h 88 % 0 mm 33 W/m2
08:30 -9.4 °C -10.6 °C 34486.4 hPa NNW 12.9 km/h 31.1 km/h 87 % 0 mm 26 W/m2
08:35 -9.5 °C -10.6 °C 34486.4 hPa NW 15.6 km/h 31.1 km/h 88 % 0 mm 26 W/m2
08:40 -9.5 °C -10.6 °C 34486.4 hPa North 7.7 km/h 25.9 km/h 88 % 0 mm 26 W/m2
08:45 -9.5 °C -10.6 °C 34486.4 hPa NW 2.6 km/h 20.8 km/h 88 % 0 mm 39 W/m2
08:55 -9.4 °C -10.6 °C 34496.6 hPa NW 5.1 km/h 25.9 km/h 88 % 0 mm 47 W/m2
09:00 -9.4 °C -10.4 °C 34496.6 hPa NW 2.6 km/h 25.9 km/h 89 % 0 mm 56 W/m2
09:05 -9.3 °C -10.4 °C 34496.6 hPa NW 7.7 km/h 20.8 km/h 88 % 0 mm 81 W/m2
09:10 -9.3 °C -10.5 °C 34496.6 hPa WNW 15.6 km/h 33.6 km/h 87 % 0 mm 77 W/m2
09:15 -9.3 °C -10.4 °C 34496.6 hPa NW 12.9 km/h 33.6 km/h 87 % 0 mm 53 W/m2
09:20 -9.3 °C -10.4 °C 34510.1 hPa NW 7.7 km/h 28.5 km/h 87 % 0 mm 54 W/m2
09:25 -9.2 °C -10.5 °C 34510.1 hPa North 15.6 km/h 28.5 km/h 86 % 0 mm 53 W/m2
09:30 -9.2 °C -10.5 °C 34510.1 hPa NW 15.6 km/h 31.1 km/h 86 % 0 mm 39 W/m2
09:40 -9.3 °C -10.6 °C 34510.1 hPa NW 18.2 km/h 33.6 km/h 86 % 0 mm 62 W/m2
09:45 -9.3 °C -10.6 °C 34520.3 hPa NNW 23.3 km/h 28.5 km/h 86 % 0 mm 60 W/m2
09:50 -9.2 °C -10.6 °C 34520.3 hPa NW 18.2 km/h 25.9 km/h 85 % 0 mm 67 W/m2
09:55 -9.2 °C -10.4 °C 34520.3 hPa NW 2.6 km/h 25.9 km/h 86 % 0 mm 76 W/m2
10:00 -9.2 °C -10.6 °C 34520.3 hPa West 5.1 km/h 23.3 km/h 85 % 0 mm 69 W/m2
10:05 -9.1 °C -10.6 °C 34520.3 hPa WNW 2.6 km/h 23.3 km/h 85 % 0 mm 72 W/m2
10:10 -9.1 °C -10.5 °C 34520.3 hPa NW 15.6 km/h 31.1 km/h 85 % 0 mm 69 W/m2
10:15 -9.1 °C -10.6 °C 34533.8 hPa NNW 7.7 km/h 38.8 km/h 84 % 0 mm 60 W/m2
10:25 -9.2 °C -10.7 °C 34533.8 hPa WNW 7.7 km/h 28.5 km/h 84 % 0 mm 60 W/m2
10:30 -9.1 °C -10.6 °C 34533.8 hPa WNW 15.6 km/h 28.5 km/h 84 % 0 mm 60 W/m2
10:35 -9.1 °C -10.5 °C 34533.8 hPa NW 10.3 km/h 25.9 km/h 85 % 0 mm 72 W/m2
10:40 -9.1 °C -10.6 °C 34533.8 hPa NW 18.2 km/h 23.3 km/h 84 % 0 mm 69 W/m2
10:45 -9.1 °C -10.6 °C 34544 hPa West 15.6 km/h 28.5 km/h 84 % 0 mm 76 W/m2
10:50 -9.1 °C -10.6 °C 34544 hPa WNW 28.5 km/h 38.8 km/h 84 % 0 mm 74 W/m2
10:55 -9.1 °C -10.6 °C 34544 hPa NW 15.6 km/h 41.4 km/h 84 % 0 mm 69 W/m2
11:00 -9.1 °C -10.6 °C 34544 hPa WNW 12.9 km/h 41.4 km/h 84 % 0 mm 53 W/m2
11:10 -9.1 °C -10.6 °C 34544 hPa NNE 5.1 km/h 25.9 km/h 84 % 0 mm 90 W/m2
11:15 -9 °C -10.6 °C 34554.1 hPa NE 2.6 km/h 23.3 km/h 83 % 0 mm 105 W/m2
11:20 -8.9 °C -10.6 °C 34554.1 hPa NW 10.3 km/h 28.5 km/h 83 % 0 mm 141 W/m2
11:25 -8.8 °C -10.6 °C 34554.1 hPa NNW 10.3 km/h 36.2 km/h 82 % 0 mm 165 W/m2
11:30 -8.7 °C -10.5 °C 34554.1 hPa WNW 12.9 km/h 36.2 km/h 81 % 0 mm 188 W/m2
11:35 -8.6 °C -10.4 °C 34554.1 hPa North 18.2 km/h 23.3 km/h 81 % 0 mm 216 W/m2
11:40 -8.5 °C -10.4 °C 34554.1 hPa NNW 7.7 km/h 23.3 km/h 80 % 0 mm 160 W/m2
11:45 -8.5 °C -10.4 °C 34554.1 hPa WNW 7.7 km/h 23.3 km/h 80 % 0 mm 97 W/m2
11:55 -8.7 °C -10.3 °C 34554.1 hPa NW 7.7 km/h 33.6 km/h 82 % 0 mm 118 W/m2
12:00 -8.6 °C -10.6 °C 34554.1 hPa WNW 18.2 km/h 28.5 km/h 80 % 0 mm 151 W/m2
12:05 -8.5 °C -10.4 °C 34554.1 hPa NW 5.1 km/h 28.5 km/h 80 % 0 mm 156 W/m2
12:10 -8.5 °C -10.4 °C 34567.7 hPa NW 5.1 km/h 23.3 km/h 80 % 0 mm 169 W/m2
12:15 -8.4 °C -10.4 °C 34567.7 hPa NW 10.3 km/h 23.3 km/h 79 % 0 mm 169 W/m2
12:20 -8.4 °C -10.2 °C 34567.7 hPa WNW 10.3 km/h 23.3 km/h 81 % 0 mm 151 W/m2
12:25 -8.3 °C -10.3 °C 34567.7 hPa WNW 7.7 km/h 20.8 km/h 80 % 0 mm 134 W/m2
12:30 -8.4 °C -10.3 °C 34567.7 hPa WNW 12.9 km/h 20.8 km/h 80 % 0 mm 148 W/m2
12:40 -8.2 °C -10.2 °C 34567.7 hPa NNW 7.7 km/h 23.3 km/h 79 % 0 mm 192 W/m2
12:45 -8.2 °C -10.3 °C 34567.7 hPa Calm   25.9 km/h 78 % 0 mm 185 W/m2
12:50 -8.1 °C -10.3 °C 34567.7 hPa WNW 10.3 km/h 25.9 km/h 78 % 0 mm 123 W/m2
12:55 -8.2 °C -10.3 °C 34577.8 hPa NNW 5.1 km/h 20.8 km/h 79 % 0 mm 139 W/m2
13:00 -8.3 °C -10.4 °C 34577.8 hPa WNW 5.1 km/h 33.6 km/h 79 % 0 mm 155 W/m2
13:05 -8.3 °C -10.2 °C 34577.8 hPa WNW 15.6 km/h 33.6 km/h 80 % 0 mm 130 W/m2
13:10 -8.3 °C -10.4 °C 34577.8 hPa WNW 15.6 km/h 23.3 km/h 79 % 0 mm 153 W/m2
13:15 -8.3 °C -10.3 °C 34577.8 hPa WNW 10.3 km/h 25.9 km/h 79 % 0 mm 207 W/m2
13:25 -7.9 °C -10.2 °C 34577.8 hPa WNW 12.9 km/h 25.9 km/h 77 % 0 mm 260 W/m2
13:30 -7.9 °C -10.2 °C 34577.8 hPa North 12.9 km/h 25.9 km/h 77 % 0 mm 253 W/m2
13:35 -7.8 °C -10.2 °C 34577.8 hPa West 2.6 km/h 23.3 km/h 76 % 0 mm 288 W/m2
13:40 -7.7 °C -10.1 °C 34577.8 hPa NW 10.3 km/h 23.3 km/h 76 % 0 mm 306 W/m2
13:50 -7.4 °C -9.8 °C 34577.8 hPa WNW 25.9 km/h 33.6 km/h 76 % 0 mm 339 W/m2
13:55 -7.6 °C -10.2 °C 34591.4 hPa WNW 12.9 km/h 33.6 km/h 74 % 0 mm 362 W/m2
14:00 -7.5 °C -10.1 °C 34577.8 hPa West 18.2 km/h 31.1 km/h 74 % 0 mm 320 W/m2
14:05 -7.6 °C -10.2 °C 34577.8 hPa NW 5.1 km/h 31.1 km/h 74 % 0 mm 262 W/m2
14:10 -7.4 °C -10.1 °C 34591.4 hPa West 10.3 km/h 25.9 km/h 74 % 0 mm 287 W/m2
14:15 -7.4 °C -10.1 °C 34577.8 hPa WNW 5.1 km/h 25.9 km/h 74 % 0 mm 399 W/m2
14:20 -7.2 °C -10.1 °C 34577.8 hPa West 5.1 km/h 33.6 km/h 72 % 0 mm 543 W/m2
14:25 -6.8 °C -9.7 °C 34577.8 hPa NW 15.6 km/h 33.6 km/h 72 % 0 mm 536 W/m2
14:30 -6.6 °C -9.6 °C 34591.4 hPa WNW 10.3 km/h 23.3 km/h 71 % 0 mm 283 W/m2
14:35 -6.9 °C -9.9 °C 34591.4 hPa NW 12.9 km/h 33.6 km/h 71 % 0 mm 339 W/m2
14:40 -7.1 °C -10.1 °C 34591.4 hPa WNW 12.9 km/h 33.6 km/h 71 % 0 mm 269 W/m2
14:45 -7.2 °C -10.3 °C 34591.4 hPa NW 12.9 km/h 31.1 km/h 70 % 0 mm 301 W/m2
14:55 -7.1 °C -10.2 °C 34591.4 hPa NW 7.7 km/h 23.3 km/h 70 % 0 mm 244 W/m2
15:00 -7.1 °C -10 °C 34591.4 hPa NW 12.9 km/h 23.3 km/h 72 % 0 mm 315 W/m2
15:10 -6.9 °C -10.1 °C 34591.4 hPa NW 12.9 km/h 23.3 km/h 69 % 0 mm 315 W/m2
15:15 -7.1 °C -10.2 °C 34591.4 hPa NNW 15.6 km/h 31.1 km/h 70 % 0 mm 214 W/m2
15:20 -7.3 °C -10.2 °C 34591.4 hPa WNW 20.8 km/h 31.1 km/h 71 % 0 mm 283 W/m2
15:25 -7.1 °C -10.1 °C 34591.4 hPa NW 15.6 km/h 31.1 km/h 71 % 0 mm 329 W/m2
15:30 -6.9 °C -10 °C 34591.4 hPa WNW 23.3 km/h 28.5 km/h 70 % 0 mm 466 W/m2
15:40 -6.2 °C -9.8 °C 34591.4 hPa WNW 12.9 km/h 41.4 km/h 66 % 0 mm 663 W/m2
15:45 -6.1 °C -9.7 °C 34591.4 hPa WNW 10.3 km/h 41.4 km/h 66 % 0 mm 540 W/m2
15:50 -6.1 °C -9.7 °C 34591.4 hPa NW 15.6 km/h 25.9 km/h 66 % 0 mm 494 W/m2
15:55 -6.3 °C -9.9 °C 34591.4 hPa WNW 15.6 km/h 33.6 km/h 66 % 0 mm 563 W/m2
16:00 -6.2 °C -9.7 °C 34591.4 hPa NW 23.3 km/h 33.6 km/h 67 % 0 mm 490 W/m2
16:05 -6.2 °C -9.5 °C 34591.4 hPa NW 10.3 km/h 31.1 km/h 69 % 0 mm 406 W/m2
16:10 -5.7 °C -9.2 °C 34591.4 hPa WNW 33.6 km/h 38.8 km/h 67 % 0 mm 747 W/m2
16:15 -6.2 °C -9.4 °C 34591.4 hPa NW 7.7 km/h 38.8 km/h 69 % 0 mm 392 W/m2
16:25 -6.6 °C -9.5 °C 34591.4 hPa NNW 15.6 km/h 25.9 km/h 72 % 0 mm 281 W/m2
16:30 -6.7 °C -9.6 °C 34591.4 hPa WNW 7.7 km/h 33.6 km/h 72 % 0 mm 320 W/m2
16:35 -6.9 °C -9.7 °C 34591.4 hPa NW 18.2 km/h 38.8 km/h 73 % 0 mm 267 W/m2
16:40 -7.2 °C -9.7 °C 34591.4 hPa West 18.2 km/h 38.8 km/h 75 % 0 mm 461 W/m2
16:45 -7 °C -9.6 °C 34601.5 hPa WNW 10.3 km/h 41.4 km/h 74 % 0 mm 302 W/m2
16:50 -6.8 °C -9.8 °C 34601.5 hPa NW 23.3 km/h 41.4 km/h 71 % 0 mm 294 W/m2
16:55 -6.9 °C -9.8 °C 34591.4 hPa West 10.3 km/h 46.7 km/h 72 % 0 mm 461 W/m2
17:00 -6.8 °C -9.7 °C 34601.5 hPa West 23.3 km/h 46.7 km/h 72 % 0 mm 387 W/m2
17:10 -6.2 °C -9.4 °C 34601.5 hPa WSW 12.9 km/h 38.8 km/h 70 % 0 mm 854 W/m2
17:15 -6.2 °C -9.4 °C 34591.4 hPa West 38.8 km/h 44.1 km/h 69 % 0 mm 424 W/m2
17:20 -6.6 °C -9.7 °C 34601.5 hPa NW 38.8 km/h 44.1 km/h 70 % 0 mm 276 W/m2
17:25 -6.8 °C -9.7 °C 34601.5 hPa SW 5.1 km/h 51.8 km/h 72 % 0 mm 346 W/m2
17:30 -6.8 °C -9.7 °C 34601.5 hPa NW 20.8 km/h 51.8 km/h 72 % 0 mm 274 W/m2
17:35 -7 °C -9.6 °C 34601.5 hPa West 33.6 km/h 44.1 km/h 74 % 0 mm 870 W/m2
17:40 -6.5 °C -9.7 °C 34601.5 hPa NW 12.9 km/h 38.8 km/h 70 % 0 mm 304 W/m2
17:50 -6 °C -9.4 °C 34601.5 hPa West 18.2 km/h 41.4 km/h 68 % 0 mm 431 W/m2
17:55 -6 °C -9.4 °C 34601.5 hPa WSW 18.2 km/h 38.8 km/h 68 % 0 mm 406 W/m2
18:00 -5.9 °C -9.2 °C 34601.5 hPa WSW 18.2 km/h 38.8 km/h 69 % 0 mm 722 W/m2
18:05 -6.1 °C -10 °C 34601.5 hPa NW 36.2 km/h 41.4 km/h 64 % 0 mm 506 W/m2
18:10 -6.3 °C -10.5 °C 34601.5 hPa WSW 12.9 km/h 49.2 km/h 62 % 0 mm 571 W/m2
18:15 -6.4 °C -10.2 °C 34601.5 hPa WNW 31.1 km/h 49.2 km/h 65 % 0 mm 385 W/m2
18:20 -6.3 °C -9.9 °C 34601.5 hPa SW 12.9 km/h 38.8 km/h 67 % 0 mm 570 W/m2
18:25 -6.4 °C -10.2 °C 34611.7 hPa West 28.5 km/h 44.1 km/h 65 % 0 mm 190 W/m2
18:30 -6.8 °C -10.3 °C 34611.7 hPa WSW 12.9 km/h 44.1 km/h 67 % 0 mm 195 W/m2
18:40 -7.1 °C -10.3 °C 34611.7 hPa WNW 18.2 km/h 44.1 km/h 69 % 0 mm 438 W/m2
18:45 -6.9 °C -10.3 °C 34611.7 hPa West 20.8 km/h 46.7 km/h 68 % 0 mm 448 W/m2
18:50 -6.8 °C -10.1 °C 34611.7 hPa WNW 10.3 km/h 46.7 km/h 68 % 0 mm 459 W/m2
18:55 -6.7 °C -10.2 °C 34611.7 hPa WSW 33.6 km/h 36.2 km/h 67 % 0 mm 436 W/m2
19:00 -6.8 °C -10.3 °C 34611.7 hPa SW 28.5 km/h 38.8 km/h 67 % 0 mm 422 W/m2
19:05 -7 °C -10.3 °C 34611.7 hPa West 20.8 km/h 44.1 km/h 68 % 0 mm 483 W/m2
19:10 -7.1 °C -10.4 °C 34611.7 hPa West 25.9 km/h 49.2 km/h 68 % 0 mm 155 W/m2
19:15 -7.4 °C -10.6 °C 34625.2 hPa West 12.9 km/h 49.2 km/h 70 % 0 mm 151 W/m2
19:25 -7.6 °C -10.5 °C 34625.2 hPa WNW 23.3 km/h 41.4 km/h 71 % 0 mm 149 W/m2
19:30 -7.6 °C -10.4 °C 34625.2 hPa WNW 31.1 km/h 38.8 km/h 72 % 0 mm 153 W/m2
19:35 -7.6 °C -10.3 °C 34625.2 hPa WNW 20.8 km/h 38.8 km/h 73 % 0 mm 132 W/m2
19:40 -7.6 °C -10.5 °C 34625.2 hPa West 20.8 km/h 41.4 km/h 72 % 0 mm 123 W/m2
19:45 -7.6 °C -10.5 °C 34625.2 hPa West 12.9 km/h 41.4 km/h 72 % 0 mm 134 W/m2
19:50 -7.7 °C -10.6 °C 34625.2 hPa WNW 20.8 km/h 44.1 km/h 72 % 0 mm 135 W/m2
19:55 -7.7 °C -10.5 °C 34625.2 hPa NW 23.3 km/h 44.1 km/h 72 % 0 mm 135 W/m2
20:00 -7.7 °C -10.5 °C 34625.2 hPa West 18.2 km/h 36.2 km/h 72 % 0 mm 125 W/m2
20:10 -7.8 °C -10.5 °C 34625.2 hPa WNW 20.8 km/h 36.2 km/h 73 % 0 mm 93 W/m2
20:15 -7.8 °C -10.6 °C 34625.2 hPa WNW 23.3 km/h 44.1 km/h 73 % 0 mm 104 W/m2
20:20 -7.8 °C -10.6 °C 34625.2 hPa WNW 18.2 km/h 44.1 km/h 73 % 0 mm 107 W/m2
20:25 -7.8 °C -10.6 °C 34625.2 hPa West 20.8 km/h 41.4 km/h 73 % 0 mm 93 W/m2
20:30 -7.9 °C -10.6 °C 34625.2 hPa West 23.3 km/h 33.6 km/h 73 % 0 mm 83 W/m2
20:35 -7.9 °C -10.6 °C 34625.2 hPa NW 15.6 km/h 38.8 km/h 73 % 0 mm 83 W/m2
20:40 -7.9 °C -10.6 °C 34625.2 hPa WNW 12.9 km/h 38.8 km/h 73 % 0 mm 116 W/m2
20:45 -7.7 °C -10.5 °C 34625.2 hPa West 15.6 km/h 33.6 km/h 73 % 0 mm 95 W/m2
20:55 -7.7 °C -10.4 °C 34635.4 hPa WNW 15.6 km/h 41.4 km/h 73 % 0 mm 91 W/m2
21:00 -7.8 °C -10.5 °C 34625.2 hPa NW 18.2 km/h 36.2 km/h 73 % 0 mm 54 W/m2
21:05 -7.9 °C -10.6 °C 34635.4 hPa NW 36.2 km/h 38.8 km/h 74 % 0 mm 47 W/m2
21:10 -8.1 °C -10.6 °C 34625.2 hPa NW 12.9 km/h 38.8 km/h 75 % 0 mm 37 W/m2
21:15 -8.2 °C -10.6 °C 34625.2 hPa West 12.9 km/h 36.2 km/h 76 % 0 mm 26 W/m2
21:20 -8.3 °C -10.7 °C 34635.4 hPa NW 18.2 km/h 33.6 km/h 76 % 0 mm 26 W/m2
21:25 -8.4 °C -10.7 °C 34635.4 hPa WNW 18.2 km/h 44.1 km/h 77 % 0 mm 19 W/m2
21:30 -8.4 °C -10.6 °C 34635.4 hPa WNW 20.8 km/h 44.1 km/h 78 % 0 mm 18 W/m2
21:40 -8.6 °C -10.6 °C 34635.4 hPa WNW 20.8 km/h 33.6 km/h 80 % 0 mm 14 W/m2
21:45 -8.7 °C -10.5 °C 34635.4 hPa NW 20.8 km/h 41.4 km/h 81 % 0 mm 12 W/m2
21:50 -8.8 °C -10.5 °C 34635.4 hPa West 18.2 km/h 41.4 km/h 82 % 0 mm 11 W/m2
21:55 -8.8 °C -10.4 °C 34635.4 hPa NW 10.3 km/h 28.5 km/h 83 % 0 mm 9 W/m2
22:00 -8.9 °C -10.5 °C 34635.4 hPa SW 7.7 km/h 28.5 km/h 83 % 0 mm 7 W/m2
22:05 -8.9 °C -10.4 °C 34645.6 hPa WNW 10.3 km/h 28.5 km/h 84 % 0 mm 5 W/m2
22:10 -8.9 °C -10.4 °C 34645.6 hPa West 10.3 km/h 28.5 km/h 84 % 0 mm 0 W/m2
22:15 -9 °C -10.5 °C 34645.6 hPa West 12.9 km/h 28.5 km/h 84 % 0 mm 0 W/m2
22:25 -9.1 °C -10.4 °C 34645.6 hPa West 2.6 km/h 28.5 km/h 85 % 0 mm 0 W/m2
22:30 -9.1 °C -10.4 °C 34645.6 hPa WNW 18.2 km/h 36.2 km/h 85 % 0 mm 0 W/m2
22:35 -9.1 °C -10.4 °C 34645.6 hPa NNW 12.9 km/h 36.2 km/h 85 % 0 mm 0 W/m2
22:40 -9.1 °C -10.5 °C 34659.1 hPa NW 12.9 km/h 33.6 km/h 85 % 0 mm 0 W/m2
22:45 -9.1 °C -10.5 °C 34659.1 hPa West 20.8 km/h 31.1 km/h 85 % 0 mm 0 W/m2
22:50 -9.1 °C -10.6 °C 34659.1 hPa WNW 23.3 km/h 36.2 km/h 85 % 0 mm 0 W/m2
22:55 -9.1 °C -10.5 °C 34659.1 hPa WNW 20.8 km/h 41.4 km/h 85 % 0 mm 0 W/m2
23:00 -9.1 °C -10.6 °C 34659.1 hPa West 18.2 km/h 41.4 km/h 85 % 0 mm 0 W/m2
23:05 -9.1 °C -10.4 °C 34659.1 hPa West 5.1 km/h 38.8 km/h 86 % 0 mm 0 W/m2
23:10 -9.2 °C -10.4 °C 34659.1 hPa WNW 18.2 km/h 38.8 km/h 86 % 0 mm 0 W/m2
23:15 -9.1 °C -10.4 °C 34659.1 hPa WSW 7.7 km/h 44.1 km/h 86 % 0 mm 0 W/m2
23:20 -9.2 °C -10.4 °C 34659.1 hPa West 12.9 km/h 44.1 km/h 86 % 0 mm 0 W/m2
23:25 -9.2 °C -10.4 °C 34659.1 hPa NW 2.6 km/h 41.4 km/h 87 % 0 mm 0 W/m2
23:30 -9.3 °C -10.4 °C 34659.1 hPa NW 20.8 km/h 31.1 km/h 87 % 0 mm 0 W/m2
23:35 -9.3 °C -10.4 °C 34659.1 hPa WSW 10.3 km/h 28.5 km/h 87 % 0 mm 0 W/m2
23:40 -9.3 °C -10.5 °C 34659.1 hPa NW 15.6 km/h 28.5 km/h 87 % 0 mm 0 W/m2
23:45 -9.3 °C -10.5 °C 34659.1 hPa WNW 2.6 km/h 28.5 km/h 87 % 0 mm 0 W/m2
23:55 -9.3 °C -10.5 °C 34669.3 hPa WNW 23.3 km/h 38.8 km/h 87 % 0 mm 0 W/m2
Avec l'autorisation de Weather Underground - 1.5 mb